Time,TemperatureF,DewpointF,PressureIn,WindDirection,WindDirectionDegrees,WindSpeedMPH,WindSpeedGustMPH,Humidity,HourlyPrecipIn,Conditions,Clouds,dailyrainin,SoftwareType,DateUTC
2013-07-16 00:14:00,77.0,76.4,29.96,ESE,112,2.7,-999.0,98,-99.99,,,0.00,Acu-Link.com,2013-07-16 04:14:00,
2013-07-16 00:30:00,76.6,76.0,29.95,ESE,112,2.7,-999.0,98,-99.99,,,0.00,Acu-Link.com,2013-07-16 04:30:00,
2013-07-16 00:45:00,76.6,76.0,29.95,ESE,112,1.7,-999.0,98,-99.99,,,0.00,Acu-Link.com,2013-07-16 04:45:00,
2013-07-16 01:00:00,76.5,75.9,29.94,ESE,112,4.7,-999.0,98,-99.99,,,0.00,Acu-Link.com,2013-07-16 05:00:00,
2013-07-16 01:15:00,76.3,75.7,29.94,ESE,112,5.8,-999.0,98,-99.99,,,0.00,Acu-Link.com,2013-07-16 05:15:00,
2013-07-16 01:30:00,76.1,75.5,29.94,ESE,112,3.7,-999.0,98,-99.99,,,0.00,Acu-Link.com,2013-07-16 05:30:00,
2013-07-16 01:46:00,76.1,75.5,29.93,ESE,112,1.7,-999.0,98,-99.99,,,0.00,Acu-Link.com,2013-07-16 05:46:00,
2013-07-16 02:01:00,76.1,75.5,29.93,ESE,112,1.7,-999.0,98,-99.99,,,0.00,Acu-Link.com,2013-07-16 06:01:00,
2013-07-16 02:16:00,76.1,75.5,29.94,East,90,2.7,-999.0,98,-99.99,,,0.00,Acu-Link.com,2013-07-16 06:16:00,
2013-07-16 02:31:00,76.3,75.7,29.94,East,90,0.0,-999.0,98,-99.99,,,0.00,Acu-Link.com,2013-07-16 06:31:00,
2013-07-16 02:46:00,76.1,75.5,29.94,ESE,112,3.2,-999.0,98,-99.99,,,0.00,Acu-Link.com,2013-07-16 06:46:00,
2013-07-16 03:02:00,75.9,75.3,29.93,ENE,67,1.7,-999.0,98,-99.99,,,0.00,Acu-Link.com,2013-07-16 07:02:00,
2013-07-16 03:17:00,75.6,75.0,29.93,NNE,22,2.2,-999.0,98,-99.99,,,0.00,Acu-Link.com,2013-07-16 07:17:00,
2013-07-16 03:32:00,75.6,75.0,29.92,NE,45,2.2,-999.0,98,-99.99,,,0.00,Acu-Link.com,2013-07-16 07:32:00,
2013-07-16 03:48:00,75.2,74.6,29.93,East,90,2.7,-999.0,98,-99.99,,,0.00,Acu-Link.com,2013-07-16 07:48:00,
2013-07-16 04:03:00,75.4,74.8,29.93,East,90,2.7,-999.0,98,-99.99,,,0.00,Acu-Link.com,2013-07-16 08:03:00,
2013-07-16 04:18:00,75.6,75.0,29.93,NE,45,1.1,-999.0,98,-99.99,,,0.00,Acu-Link.com,2013-07-16 08:18:00,
2013-07-16 04:33:00,75.4,74.8,29.93,ENE,67,3.2,-999.0,98,-99.99,,,0.00,Acu-Link.com,2013-07-16 08:33:00,
2013-07-16 04:49:00,75.6,75.0,29.93,NE,45,1.7,-999.0,98,-99.99,,,0.00,Acu-Link.com,2013-07-16 08:49:00,
2013-07-16 05:04:00,75.6,75.0,29.93,NE,45,2.7,-999.0,98,-99.99,,,0.00,Acu-Link.com,2013-07-16 09:04:00,
2013-07-16 05:19:00,75.6,75.0,29.93,NE,45,0.0,-999.0,98,-99.99,,,0.00,Acu-Link.com,2013-07-16 09:19:00,
2013-07-16 05:34:00,75.6,75.0,29.93,NNE,22,1.1,-999.0,98,-99.99,,,0.00,Acu-Link.com,2013-07-16 09:34:00,
2013-07-16 05:49:00,75.4,74.8,29.94,NE,45,0.0,-999.0,98,-99.99,,,0.00,Acu-Link.com,2013-07-16 09:49:00,
2013-07-16 06:04:00,75.4,74.8,29.94,East,90,1.7,-999.0,98,-99.99,,,0.00,Acu-Link.com,2013-07-16 10:04:00,
2013-07-16 06:20:00,75.6,75.0,29.94,NE,45,1.7,-999.0,98,-99.99,,,0.00,Acu-Link.com,2013-07-16 10:20:00,
2013-07-16 06:35:00,75.4,74.8,29.95,NE,45,0.0,-999.0,98,-99.99,,,0.02,Acu-Link.com,2013-07-16 10:35:00,
2013-07-16 06:50:00,75.4,74.8,29.95,NE,45,1.7,-999.0,98,-99.99,,,0.02,Acu-Link.com,2013-07-16 10:50:00,
2013-07-16 07:06:00,75.9,75.3,29.95,NE,45,1.7,-999.0,98,-99.99,,,0.02,Acu-Link.com,2013-07-16 11:06:00,
2013-07-16 07:21:00,76.8,76.2,29.95,ESE,112,1.7,-999.0,98,-99.99,,,0.02,Acu-Link.com,2013-07-16 11:21:00,
2013-07-16 07:36:00,77.7,77.1,29.95,ENE,67,2.7,-999.0,98,-99.99,,,0.02,Acu-Link.com,2013-07-16 11:36:00,
2013-07-16 07:52:00,79.5,78.9,29.95,NE,45,0.0,-999.0,98,-99.99,,,0.02,Acu-Link.com,2013-07-16 11:52:00,
2013-07-16 08:07:00,80.1,79.5,29.95,NE,45,0.0,-999.0,98,-99.99,,,0.02,Acu-Link.com,2013-07-16 12:07:00,
2013-07-16 08:22:00,80.8,80.2,29.97,ENE,67,3.7,-999.0,98,-99.99,,,0.02,Acu-Link.com,2013-07-16 12:22:00,
2013-07-16 08:37:00,81.3,80.7,29.96,East,90,1.7,-999.0,98,-99.99,,,0.02,Acu-Link.com,2013-07-16 12:37:00,
2013-07-16 08:52:00,81.7,81.1,29.98,East,90,6.8,-999.0,98,-99.99,,,0.02,Acu-Link.com,2013-07-16 12:52:00,
2013-07-16 09:08:00,82.2,81.6,29.97,East,90,6.8,-999.0,98,-99.99,,,0.02,Acu-Link.com,2013-07-16 13:08:00,
2013-07-16 09:23:00,81.9,81.3,29.97,ESE,112,7.8,-999.0,98,-99.99,,,0.02,Acu-Link.com,2013-07-16 13:23:00,
2013-07-16 09:38:00,82.9,80.3,29.97,ESE,112,4.2,-999.0,92,-99.99,,,0.02,Acu-Link.com,2013-07-16 13:38:00,
2013-07-16 09:53:00,83.7,79.1,29.98,ESE,112,4.2,-999.0,86,-99.99,,,0.02,Acu-Link.com,2013-07-16 13:53:00,
2013-07-16 10:08:00,83.8,78.8,29.97,East,90,4.7,-999.0,85,-99.99,,,0.02,Acu-Link.com,2013-07-16 14:08:00,
2013-07-16 10:24:00,84.4,77.2,29.98,ESE,112,3.2,-999.0,79,-99.99,,,0.02,Acu-Link.com,2013-07-16 14:24:00,
2013-07-16 10:39:00,84.4,76.4,29.98,East,90,5.3,-999.0,77,-99.99,,,0.02,Acu-Link.com,2013-07-16 14:39:00,
2013-07-16 10:54:00,83.8,75.8,29.98,ESE,112,3.2,-999.0,77,-99.99,,,0.02,Acu-Link.com,2013-07-16 14:54:00,
2013-07-16 11:09:00,84.2,76.6,29.98,ESE,112,8.3,-999.0,78,-99.99,,,0.02,Acu-Link.com,2013-07-16 15:09:00,
2013-07-16 11:26:00,83.1,75.5,29.99,ESE,112,8.9,-999.0,78,-99.99,,,0.05,Acu-Link.com,2013-07-16 15:26:00,
2013-07-16 11:41:00,87.4,76.4,29.99,East,90,8.9,-999.0,70,-99.99,,,0.05,Acu-Link.com,2013-07-16 15:41:00,
2013-07-16 11:59:00,87.6,73.9,29.98,East,90,8.3,-999.0,64,-99.99,,,0.05,Acu-Link.com,2013-07-16 15:59:00,
2013-07-16 12:14:00,88.9,74.2,29.97,ESE,112,9.4,-999.0,62,-99.99,,,0.05,Acu-Link.com,2013-07-16 16:14:00,
2013-07-16 12:29:00,83.8,74.6,29.97,ENE,67,6.8,-999.0,74,-99.99,,,0.06,Acu-Link.com,2013-07-16 16:29:00,
2013-07-16 12:50:00,88.7,75.4,29.97,ENE,67,6.8,-999.0,65,-99.99,,,0.06,Acu-Link.com,2013-07-16 16:50:00,
2013-07-16 13:11:00,86.5,76.8,29.96,NE,45,7.8,-999.0,73,-99.99,,,0.06,Acu-Link.com,2013-07-16 17:11:00,
2013-07-16 13:31:00,86.7,76.1,29.95,ESE,112,2.2,-999.0,71,-99.99,,,0.06,Acu-Link.com,2013-07-16 17:31:00,
2013-07-16 13:51:00,88.0,75.2,29.95,ESE,112,0.0,-999.0,66,-99.99,,,0.06,Acu-Link.com,2013-07-16 17:51:00,
2013-07-16 14:06:00,87.4,74.2,29.95,East,90,4.7,-999.0,65,-99.99,,,0.06,Acu-Link.com,2013-07-16 18:06:00,
2013-07-16 14:22:00,89.2,74.4,29.94,ESE,112,3.7,-999.0,62,-99.99,,,0.06,Acu-Link.com,2013-07-16 18:22:00,
2013-07-16 14:37:00,76.1,75.2,29.98,ESE,112,5.8,-999.0,97,-99.99,,,0.15,Acu-Link.com,2013-07-16 18:37:00,
2013-07-16 14:52:00,72.3,71.7,30.00,ESE,112,9.4,-999.0,98,-99.99,,,0.48,Acu-Link.com,2013-07-16 18:52:00,
2013-07-16 15:07:00,72.3,71.7,29.98,SE,135,3.2,-999.0,98,-99.99,,,0.49,Acu-Link.com,2013-07-16 19:07:00,
2013-07-16 15:23:00,72.3,71.7,30.00,ESE,112,3.2,-999.0,98,-99.99,,,0.53,Acu-Link.com,2013-07-16 19:23:00,
2013-07-16 15:38:00,72.5,71.9,29.98,ESE,112,0.0,-999.0,98,-99.99,,,0.83,Acu-Link.com,2013-07-16 19:38:00,
2013-07-16 15:53:00,72.7,72.1,29.98,East,90,0.0,-999.0,98,-99.99,,,0.83,Acu-Link.com,2013-07-16 19:53:00,
2013-07-16 16:09:00,72.9,72.3,29.97,East,90,2.7,-999.0,98,-99.99,,,0.83,Acu-Link.com,2013-07-16 20:09:00,
2013-07-16 16:24:00,73.0,72.4,29.97,ESE,112,1.1,-999.0,98,-99.99,,,0.83,Acu-Link.com,2013-07-16 20:24:00,
2013-07-16 16:40:00,73.6,73.0,29.96,NE,45,0.0,-999.0,98,-99.99,,,0.84,Acu-Link.com,2013-07-16 20:40:00,
2013-07-16 16:55:00,73.4,72.8,29.96,NE,45,0.0,-999.0,98,-99.99,,,0.84,Acu-Link.com,2013-07-16 20:55:00,
2013-07-16 17:10:00,73.9,73.3,29.95,East,90,1.7,-999.0,98,-99.99,,,0.84,Acu-Link.com,2013-07-16 21:10:00,
2013-07-16 17:25:00,74.1,73.5,29.95,ENE,67,0.0,-999.0,98,-99.99,,,0.84,Acu-Link.com,2013-07-16 21:25:00,
2013-07-16 17:41:00,74.8,74.2,29.95,NNE,22,0.0,-999.0,98,-99.99,,,0.84,Acu-Link.com,2013-07-16 21:41:00,
2013-07-16 17:56:00,75.2,74.6,29.96,NNE,22,0.0,-999.0,98,-99.99,,,0.84,Acu-Link.com,2013-07-16 21:56:00,
2013-07-16 18:11:00,75.4,74.8,29.95,East,90,1.7,-999.0,98,-99.99,,,0.84,Acu-Link.com,2013-07-16 22:11:00,
2013-07-16 18:26:00,75.6,75.0,29.94,East,90,2.7,-999.0,98,-99.99,,,0.84,Acu-Link.com,2013-07-16 22:26:00,
2013-07-16 18:42:00,75.9,75.3,29.94,ESE,112,2.7,-999.0,98,-99.99,,,0.84,Acu-Link.com,2013-07-16 22:42:00,
2013-07-16 18:57:00,75.9,75.3,29.95,ENE,67,1.7,-999.0,98,-99.99,,,0.84,Acu-Link.com,2013-07-16 22:57:00,
2013-07-16 19:12:00,75.9,75.3,29.95,NNE,22,4.7,-999.0,98,-99.99,,,0.84,Acu-Link.com,2013-07-16 23:12:00,
2013-07-16 19:28:00,75.9,75.3,29.96,NE,45,0.0,-999.0,98,-99.99,,,0.84,Acu-Link.com,2013-07-16 23:28:00,
2013-07-16 19:43:00,75.9,75.3,29.97,NE,45,0.0,-999.0,98,-99.99,,,0.84,Acu-Link.com,2013-07-16 23:43:00,
2013-07-16 19:58:00,75.7,75.1,29.98,North,0,0.0,-999.0,98,-99.99,,,0.84,Acu-Link.com,2013-07-16 23:58:00,
2013-07-16 20:13:00,75.6,75.0,29.98,NE,45,0.0,-999.0,98,-99.99,,,0.84,Acu-Link.com,2013-07-17 00:13:00,
2013-07-16 20:29:00,75.6,75.0,29.97,NNE,22,0.0,-999.0,98,-99.99,,,0.84,Acu-Link.com,2013-07-17 00:29:00,
2013-07-16 20:44:00,75.6,75.0,29.98,NE,45,0.0,-999.0,98,-99.99,,,0.84,Acu-Link.com,2013-07-17 00:44:00,
2013-07-16 20:59:00,75.4,74.8,29.97,North,0,0.0,-999.0,98,-99.99,,,0.84,Acu-Link.com,2013-07-17 00:59:00,
2013-07-16 21:14:00,75.4,74.8,29.98,NE,45,0.0,-999.0,98,-99.99,,,0.84,Acu-Link.com,2013-07-17 01:14:00,
2013-07-16 21:30:00,75.4,74.8,29.98,NE,45,1.1,-999.0,98,-99.99,,,0.84,Acu-Link.com,2013-07-17 01:30:00,
2013-07-16 21:45:00,75.6,75.0,29.99,ESE,112,1.7,-999.0,98,-99.99,,,0.84,Acu-Link.com,2013-07-17 01:45:00,
2013-07-16 22:01:00,75.9,75.3,29.99,East,90,2.2,-999.0,98,-99.99,,,0.84,Acu-Link.com,2013-07-17 02:01:00,
2013-07-16 22:16:00,75.9,75.3,29.99,NE,45,1.1,-999.0,98,-99.99,,,0.84,Acu-Link.com,2013-07-17 02:16:00,
2013-07-16 22:31:00,75.9,75.3,29.99,NE,45,1.7,-999.0,98,-99.99,,,0.84,Acu-Link.com,2013-07-17 02:31:00,
2013-07-16 22:46:00,75.6,75.0,29.99,NE,45,0.0,-999.0,98,-99.99,,,0.84,Acu-Link.com,2013-07-17 02:46:00,
2013-07-16 23:02:00,75.4,74.8,29.99,NE,45,0.0,-999.0,98,-99.99,,,0.84,Acu-Link.com,2013-07-17 03:02:00,
2013-07-16 23:17:00,75.2,74.6,29.99,NNE,22,0.0,-999.0,98,-99.99,,,0.84,Acu-Link.com,2013-07-17 03:17:00,
2013-07-16 23:32:00,75.2,74.6,29.99,NNE,22,0.0,-999.0,98,-99.99,,,0.84,Acu-Link.com,2013-07-17 03:32:00,
2013-07-16 23:47:00,75.0,74.4,29.99,NE,45,0.0,-999.0,98,-99.99,,,0.84,Acu-Link.com,2013-07-17 03:47:00,